Location: Newark
(58.8333°N, 23.5833°E)
Time: 07:16:26
(UTC+00:00)

S-56A Canister/Altair - Pass Details

Date: 23 November 2019
Orbit: 632 x 2500 km, 38.9° (Epoch: 15 December)

Event Time Altitude Azimuth Distance (km) Brightness Sun altitude
Rises 15:18:30 0° 231° (SW) 5,363 13.5 -10.7°
Reaches altitude 10° 15:23:44 10° 216° (SW) 3,992 12.1 -11.3°
Maximum altitude 15:29:49 18° 178° (S) 2,910 10.7 -12.1°
Drops below altitude 10° 15:34:42 10° 139° (SE) 3,080 10.4 -12.7°
Enters shadow 15:37:40 - 122° (ESE) 3,667 10.6 -13.0°
